GW4332 Weather Reports


Display with metric or nautical units.
time (UTC)temp
F
wind
direction
speed
MPH
gust
MPH
rain 1hr
in
rain 24hr
in
rain mn
in
humidity
%
barometer
mb
20260905201030 62 304 12.0 15.0 0.00 0.00 0.00 70 1025.2
20260905200029 62 306 13.0 17.0 0.00 0.00 0.00 72 1025.2
20260905195030 62 307 13.0 16.0 0.00 0.00 0.00 71 1025.3
20260905194030 62 300 15.0 18.0 0.00 0.00 0.00 71 1025.2
20260905193030 63 294 15.0 19.0 0.00 0.00 0.00 71 1025.1
20260905192030 63 298 16.0 20.0 0.00 0.00 0.00 72 1024.9
20260905191030 63 296 16.0 21.0 0.00 0.00 0.00 72 1024.8
20260905190030 63 290 18.0 22.0 0.00 0.00 0.00 69 1024.7
20260905185030 63 291 18.0 26.0 0.00 0.00 0.00 69 1024.5
20260905184030 63 297 18.0 27.0 0.00 0.00 0.00 69 1024.3
20260905183030 63 282 20.0 28.0 0.00 0.00 0.00 67 1024.2
20260905182030 63 295 19.0 25.0 0.00 0.00 0.00 72 1024.2
20260905181029 63 298 19.0 23.0 0.00 0.00 0.00 72 1024.1
20260905180030 63 298 15.0 24.0 0.00 0.00 0.00 73 1023.8
20260905175030 63 302 16.0 20.0 0.00 0.00 0.00 74 1024.0
20260905174029 63 294 18.0 22.0 0.00 0.00 0.00 74 1024.0
20260905173031 63 289 19.0 23.0 0.00 0.00 0.00 75 1024.0
20260905172029 63 290 19.0 26.0 0.00 0.00 0.00 74 1023.8
20260905171030 63 292 18.0 22.0 0.00 0.00 0.00 75 1023.9
20260905170030 63 290 20.0 26.0 0.00 0.00 0.00 75 1023.8
20260905165029 63 295 19.0 26.0 0.00 0.00 0.00 73 1023.7
20260905164030 63 289 19.0 27.0 0.00 0.00 0.00 73 1023.6
20260905163030 64 283 20.0 26.0 0.00 0.00 0.00 72 1023.6
20260905162030 64 281 22.0 28.0 0.00 0.00 0.00 68 1023.4
20260905161030 64 272 22.0 29.0 0.00 0.00 0.00 68 1023.2
20260905160030 64 282 23.0 29.0 0.00 0.00 0.00 68 1023.0
20260905155029 64 287 23.0 31.0 0.00 0.00 0.00 67 1022.8
20260905154030 64 286 22.0 28.0 0.00 0.00 0.00 71 1022.9
20260905153030 64 292 22.0 28.0 0.00 0.00 0.00 71 1022.8
20260905152030 64 287 26.0 31.0 0.00 0.00 0.00 69 1022.5
20260905151030 64 277 26.0 32.0 0.00 0.00 0.00 70 1022.5
20260905150030 64 284 23.0 30.0 0.00 0.00 0.00 69 1022.3
20260905145030 64 287 20.0 26.0 0.00 0.00 0.00 72 1022.4
20260905144030 64 287 23.0 30.0 0.00 0.00 0.00 71 1022.2
20260905143030 64 286 22.0 28.0 0.00 0.00 0.00 70 1022.1
20260905142029 65 279 23.0 29.0 0.00 0.00 0.00 70 1022.1
20260905141030 65 276 26.0 32.0 0.00 0.00 0.00 68 1021.9
20260905140030 65 278 25.0 31.0 0.00 0.00 0.00 69 1021.8
20260905135029 65 274 26.0 35.0 0.00 0.00 0.00 69 1021.7
20260905134030 65 278 28.0 35.0 0.00 0.00 0.00 72 1021.6
20260905133030 65 266 24.0 32.0 0.00 0.00 0.00 71 1021.5
20260905132030 65 275 27.0 33.0 0.00 0.00 0.00 73 1021.4
20260905131030 65 274 27.0 33.0 0.00 0.00 0.00 72 1021.3
20260905130030 64 277 26.0 33.0 0.00 0.00 0.00 73 1021.3
20260905125030 64 280 27.0 32.0 0.00 0.00 0.00 72 1021.2
20260905124030 65 277 29.0 35.0 0.00 0.00 0.00 71 1021.1
20260905123030 64 262 28.0 35.0 0.00 0.00 0.00 73 1021.0
20260905122030 65 266 26.0 30.0 0.00 0.00 0.00 73 1021.0
20260905121030 64 264 27.0 35.0 0.00 0.00 0.00 72 1020.8
20260905120030 64 253 30.0 37.0 0.00 0.00 0.00 71 1020.6
20260905115030 64 271 28.0 35.0 0.00 0.00 0.00 70 1020.6
20260905114030 64 276 25.0 32.0 0.00 0.00 0.00 71 1020.6
20260905113030 64 288 22.0 29.0 0.00 0.00 0.00 73 1020.5
20260905112030 64 281 28.0 36.0 0.00 0.00 0.00 73 1020.2
20260905111030 64 270 30.0 35.0 0.00 0.00 0.00 73 1020.1
20260905110030 64 261 27.0 36.0 0.00 0.00 0.00 70 1019.8
20260905105030 64 261 28.0 33.0 0.00 0.00 0.00 74 1019.8
20260905104030 64 269 28.0 35.0 0.00 0.00 0.00 75 1019.6
20260905103030 63 255 27.0 34.0 0.00 0.00 0.00 79 1019.6
20260905102030 63 265 27.0 35.0 0.00 0.00 0.00 79 1019.3
20260905101030 63 277 28.0 34.0 0.00 0.00 0.00 82 1019.4
20260905100030 63 259 30.0 39.0 0.00 0.00 0.00 79 1019.2
20260905095030 64 252 32.0 39.0 0.00 0.00 0.00 77 1018.9
20260905094030 64 272 28.0 34.0 0.00 0.00 0.00 75 1018.9
20260905093030 64 273 29.0 35.0 0.00 0.00 0.00 73 1018.7
20260905092029 64 256 28.0 33.0 0.00 0.00 0.00 75 1018.8
20260905091030 63 265 30.0 37.0 0.00 0.00 0.00 73 1018.5
20260905090030 63 262 33.0 40.0 0.00 0.00 0.00 73 1018.3
20260905085030 64 258 33.0 40.0 0.00 0.00 0.00 78 1018.1
20260905084030 63 258 31.0 40.0 0.00 0.00 0.00 78 1017.8
20260905083030 63 259 30.0 39.0 0.00 0.00 0.00 78 1017.8
20260905082030 63 262 32.0 38.0 0.00 0.00 0.00 78 1017.4
20260905081030 63 267 32.0 40.0 0.00 0.00 0.00 79 1017.3
20260905080030 63 263 30.0 35.0 0.00 0.00 0.00 80 1017.1
20260905075030 63 260 30.0 37.0 0.00 0.00 0.00 79 1017.0
20260905074029 63 253 28.0 36.0 0.00 0.00 0.00 79 1016.8
20260905073030 63 255 26.0 33.0 0.00 0.00 0.00 80 1016.7
20260905072030 63 260 28.0 34.0 0.00 0.00 0.00 79 1016.5
20260905071030 63 257 29.0 36.0 0.00 0.00 0.00 80 1016.4
20260905070030 63 255 26.0 35.0 0.00 0.00 0.00 79 1016.4
20260905065030 63 244 22.0 30.0 0.00 0.00 0.00 81 1016.4
20260905064030 63 244 22.0 29.0 0.00 0.00 0.00 81 1016.4
20260905063029 63 257 22.0 29.0 0.00 0.00 0.00 81 1016.3
20260905062030 63 240 20.0 28.0 0.00 0.00 0.00 82 1016.3
20260905061030 63 221 19.0 24.0 0.00 0.00 0.00 82 1016.3
20260905060030 63 245 18.0 27.0 0.00 0.00 0.00 81 1016.2
20260905055030 63 238 21.0 26.0 0.00 0.00 0.00 81 1016.1
20260905054030 63 230 18.0 26.0 0.00 0.00 0.00 81 1016.1
20260905053030 63 229 19.0 25.0 0.00 0.00 0.00 80 1015.9
20260905052029 63 235 17.0 24.0 0.00 0.00 0.00 81 1015.8
20260905051030 63 239 19.0 27.0 0.00 0.00 0.00 80 1015.7
20260905050030 63 243 17.0 24.0 0.00 0.00 0.00 80 1015.7
20260905045030 63 227 19.0 27.0 0.00 0.00 0.00 81 1015.6
20260905044030 63 240 18.0 25.0 0.00 0.00 0.00 81 1015.6
20260905043030 63 219 19.0 28.0 0.00 0.00 0.00 80 1015.6
20260905042029 63 243 19.0 28.0 0.00 0.00 0.00 80 1015.6
20260905041030 63 242 17.0 27.0 0.00 0.00 0.00 80 1015.5
20260905040030 63 239 17.0 25.0 0.00 0.00 0.00 79 1015.4
20260905035030 63 234 20.0 28.0 0.00 0.00 0.00 78 1015.3
20260905034030 63 245 20.0 27.0 0.00 0.00 0.00 78 1015.3
20260905033030 63 251 17.0 29.0 0.00 0.00 0.00 77 1015.4
20260905032030 63 246 21.0 27.0 0.00 0.00 0.00 78 1015.3
20260905031030 64 257 22.0 27.0 0.00 0.00 0.00 78 1015.2
20260905030030 63 254 21.0 29.0 0.00 0.00 0.00 77 1015.1
20260905025029 64 241 16.0 26.0 0.00 0.00 0.00 77 1015.1
20260905024030 64 259 20.0 26.0 0.00 0.00 0.00 76 1015.0
20260905023030 64 246 21.0 28.0 0.00 0.00 0.00 77 1015.0
20260905022030 64 238 19.0 27.0 0.00 0.00 0.00 77 1014.9
20260905021030 64 245 22.0 30.0 0.00 0.00 0.00 76 1014.8
20260905020030 64 257 23.0 30.0 0.00 0.00 0.00 76 1014.8
20260905015030 64 255 22.0 29.0 0.00 0.00 0.00 77 1014.7
20260905014030 64 256 23.0 28.0 0.00 0.00 0.00 77 1014.6
20260905013029 64 253 23.0 30.0 0.00 0.00 0.00 76 1014.6
20260905012030 64 259 22.0 29.0 0.00 0.00 0.00 76 1014.5
20260905011030 64 252 24.0 30.0 0.00 0.00 0.00 75 1014.6
20260905010029 64 256 24.0 32.0 0.00 0.00 0.00 76 1014.5
20260905005030 64 244 20.0 27.0 0.00 0.00 0.00 77 1014.5
20260905004030 64 256 22.0 28.0 0.00 0.00 0.00 77 1014.4
20260905003030 64 242 23.0 31.0 0.00 0.00 0.00 76 1014.4
20260905002030 64 257 25.0 29.0 0.00 0.00 0.00 76 1014.5
20260905001030 64 255 24.0 33.0 0.00 0.00 0.00 75 1014.5
20260905000030 65 250 26.0 32.0 0.00 0.00 0.00 75 1014.4
20260904235030 65 253 27.0 33.0 0.00 0.00 0.00 75 1014.3
20260904234030 65 263 26.0 32.0 0.00 0.00 0.00 76 1014.2
20260904233030 65 267 26.0 33.0 0.00 0.00 0.00 75 1014.4
20260904232029 65 265 26.0 32.0 0.00 0.00 0.00 76 1014.3
20260904231030 65 267 25.0 29.0 0.00 0.00 0.00 77 1014.2
20260904230030 65 268 26.0 31.0 0.00 0.00 0.00 75 1014.1
20260904225030 65 275 26.0 33.0 0.00 0.00 0.00 75 1014.1
20260904224030 65 263 26.0 31.0 0.00 0.00 0.00 76 1014.2
20260904223030 65 252 27.0 33.0 0.00 0.00 0.00 75 1014.0
20260904222030 65 256 26.0 33.0 0.00 0.00 0.00 76 1013.9
20260904221030 65 259 29.0 35.0 0.00 0.00 0.00 75 1013.8
20260904220030 65 254 28.0 37.0 0.00 0.00 0.02 75 1013.8
20260904215030 65 257 28.0 35.0 0.00 0.00 0.02 76 1013.6
20260904214030 65 253 28.0 37.0 0.00 0.00 0.02 74 1013.5
20260904213030 65 253 29.0 36.0 0.00 0.00 0.02 75 1013.5
20260904212029 65 263 29.0 37.0 0.00 0.00 0.02 76 1013.3
20260904211030 65 258 27.0 36.0 0.00 0.00 0.02 74 1013.3
20260904210030 65 254 28.0 36.0 0.00 0.00 0.02 75 1013.3
20260904205030 65 259 27.0 35.0 0.00 0.00 0.02 74 1013.2
20260904204030 65 239 22.0 30.0 0.00 0.00 0.02 77 1013.4
20260904203030 65 254 24.0 34.0 0.00 0.00 0.02 75 1013.3
20260904202029 65 253 24.0 32.0 0.00 0.00 0.02 77 1013.3